STARLINK-37041, 68104

Orbit data source: Space-Track

STARLINK-37041, 68104 is a payload satellite owned by SpaceX/Seattle (US) in SSO that was launched on Sun, 08 Mar 2026 UTC via an FALCON 9 launch vehicle from the Air Force Western Test Range (AFWTR). Payload-class satellites include a variety of spacecraft equipped with specific instruments for various scientific and technological missions. These include communications satellites like Starlink; space stations such as the ISS; scientific satellites like the Hubble; Earth observation satellites from companies like Planet Labs, Umbra, and HawkEye 360; GPS; miniature CubeSats for education and research; and military/defense satellites.

Loading next visibility...
Identifier
68104, 2026-044D
Orbit
SSO
Country
Flag of USUS
Related business
Manufacturer
SpaceX/Seattle
Mission
Operational spacecraft
Bus & Motor
STARLINK V2MO, Unknown motor
Mass
575 kg wet, ~530 kg dry
Launch date (UTC)
2026-03-08 (2 months ago)
Launch vehicle
FALCON 9
Launch site
Air Force Western Test Range (AFWTR)
Object type
Payload
Rocket body
Debris
Shape & HBR
Unknown shape, 17.7 m
Radar Cross Section
RCS unknown

Expand to show TLE details & history
Last TLE update: 14 hours ago

TLE from 14 hours ago
0 STARLINK-37041
1 68104U 26044D   26119.34727348  .00028113  00000-0  86946-3 0  9993
2 68104  97.2845  80.2929 0001289 128.8484 231.2874 15.33460449  9343
Epoch: 2026-04-29T08:20Z
TLE epoch observation values (Epoch: 2026-04-29T08:20:04.428Z)
Latitude
-0.00003°
Longitude
97.96492°
Altitude
469.161 km
Speed
7.631 km/s
True Right ascension
05h 21m 10s
True Declination
0° 00' 00"
Sunlit
Object was in daylight at epoch
Visualization orbit readout
Latitude
Unknown
Longitude
Unknown
Altitude
Unknown
Speed
Unknown
Apparent Right ascension
Unknown
Apparent Declination
Unknown
Sunlit
N/A
Visualization observer readout
Local Sidereal Time
05:38:38
Azimuth
Unknown
Elevation
Unknown
Doppler factor
Unknown
Orbital elements
Apogee altitude
463.322 km
Perigee altitude
461.558 km
Semi-major axis
6,840.577 km
Eccentricity
0.00013
Inclination
97.2845°
RAAN
80.2929°
Arg. of periapsis
128.8484°
True anomaly
231.27588°
Mean anomaly
231.2874°
Eccentric anomaly
231.28164°
Mean motion
3.83623 °/min
Orbital period
93.84 mins
BSTAR
0.00086946
Loading maneuver chart data...
Computing Atmospheric mass density...
Loading historical data...
Loading historical data...
Loading historical data...
Loading historical data...
Loading historical data...
Loading historical data...
Loading historical data...

Documentation

Showing up to 5 results
|